Location: Linz
(48.3300°N, 14.3000°E)
Time: 01:15:52
(UTC+01:00)

Envisat - Pass Details

Date: 13 November 2017
Orbit: 764 x 766 km, 98.2° (Epoch: 19 November)

Event Time Altitude Azimuth Distance (km) Brightness Sun altitude
Exits shadow 18:31:31 17° 23° (NNE) 1,850 4.7 -20.7°
Drops below altitude 10° 18:33:08 10° 8° (N) 2,313 5.4 -21.0°
Sets 18:35:47 0° 356° (N) 3,244 6.3 -21.5°
